User: anonymous   Login
Location: Unspecified
(0.0000°N, 0.0000°E)
Time: 14:46:55
(UTC+00:00)
Language:

Resurs 1-4 Rocket - Orbit

View from above orbital plane
View from above orbital plane
View from above satellite
View from above satellite

Ground track
Ground track

The orbit data is extracted from the following two-line orbital elements,

1 25400U 98043G   19142.40344694 -.00000020  00000-0  98580-5 0  9994
2 25400  98.5711  81.4312 0010727  43.3802 316.8220 14.25440545 85391
Epoch (UTC): 22 May 2019 09:40:57
Eccentricity: 0.0010727
inclination: 98.5711°
perigee height: 799 km
apogee height: 815 km
right ascension of ascending node: 81.4312°
argument of perigee: 43.3802°
revolutions per day: 14.25440545
mean anomaly at epoch: 316.8220°
orbit number at epoch: 8539

The dashed part of the orbit path shows where the satellite is in the earth's shadow,  

DLR